Flag for Spain Weather past 2 weeks in Almería, Spain

Now
76 °F

Sunny.


Feels Like: 77 °F
Forecast: 54 / 70 °F
Wind: 28 mph from East

Location: Almeria / Aeropuerto

Current Time: Apr 1, 2015 at 6:35:08 PM

Latest Report: Apr 1, 2015 at 5:00 PM


Visibility: 25 mi

Pressure: 30.21 "Hg

Humidity: 34%

Dew point: 45 °F

Location of AlmeríaLocation

Historic Weather in Almería — Graph

°F

Almería temperature yesterday

Maximum temperature yesterday: 72 °F (at 2:00 PM)
Minimum temperature yesterday: 58 °F (at 8:00 AM)
Average temperature yesterday: 65 °F

Past Weeks' High & Low Weather Summary

 TemperatureHumidityPressure
High80 °F (Apr 1, 2:00 PM)96% (Mar 28, 2:00 AM)30.29 "Hg (Mar 28, 2:00 AM)
Low51 °F (Mar 25, 5:00 AM)29% (Mar 25, 4:00 PM)29.55 "Hg (Mar 24, 6:00 AM)
Average60 °F73%29.95 "Hg
* Reported Mar 17 4:00 PM — Apr 1 5:00 PM, Almería, Weather by CustomWeather, © 2015

Note: Actual official high and low records may vary slightly from our data, if they occured in-between our weather recording intervals... More about our weather records

Advertising

Almería weather history for previous 24 hours

 ConditionsComfort  
Time TempWeatherWind HumidityBarometerVisibility
5:00 PM
Wed, Apr 1
76 °FSunny.28 mph34%30.21 "Hg25 mi
4:00 PM78 °FPleasantly warm.26 mph30%30.22 "HgN/A
3:00 PM78 °FPleasantly warm.25 mph30%30.23 "HgN/A
2:00 PM80 °FPassing clouds.23 mph30%30.23 "Hg25 mi
1:00 PM79 °FPleasantly warm.21 mph31%30.24 "HgN/A
12:00 PM78 °FPleasantly warm.23 mph37%30.24 "HgN/A
11:00 AM78 °FPassing clouds.9 mph42%30.24 "Hg25 mi
10:00 AM74 °FMild.7 mph48%30.24 "HgN/A
9:00 AM64 °FMild.2 mph71%30.22 "HgN/A
8:00 AM61 °FPassing clouds.No wind74%30.19 "Hg19 mi
7:00 AM61 °FCool.2 mph77%30.18 "HgN/A
6:00 AM61 °FCool.2 mph80%30.18 "HgN/A
5:00 AM61 °FPassing clouds.2 mph85%30.18 "Hg9 mi
4:00 AM62 °FCool.No wind87%30.20 "HgN/A
3:00 AM63 °FMild.No wind87%30.21 "HgN/A
2:00 AM65 °FMild.No wind62%30.21 "HgN/A
1:00 AM66 °FMild.1 mph74%30.22 "HgN/A
12:00 AM64 °FMild.3 mph85%30.21 "HgN/A
10:00 PM
Tue, Mar 31
67 °FMild.1 mph80%30.21 "HgN/A
9:00 PM66 °FMild.No wind83%30.19 "HgN/A
8:00 PM69 °FPassing clouds.2 mph78%30.19 "Hg25 mi
7:00 PM71 °FMild.2 mph72%30.19 "HgN/A
6:00 PM71 °FMild.3 mph74%30.20 "HgN/A
Weather by CustomWeather, © 2015

See weather overviewHow to use our weather pages